Powrót do katalogu

STARLINK-37795

AktywnyŁącznośćSSO
NORAD 69311·PAYLOAD·🇺🇸 United States

Wystrzelony May 30, 2026 z Vandenberg Space Force Base

Loading…

Następne Przeloty (najbliższe 24 godziny)

TLE

ŚwieżeSource: CelesTrak SupGP

Epoka: Sep 14, 2026, 22:55 UTC

1 69311C 26119R   26257.95534722  .00039939  00000+0  12399-2 0  2573
2 69311  97.2829 282.7983 0001143  93.3986 334.5246 15.33416436    19

Śledź STARLINK-37795 w czasie rzeczywistym z AllMySat

Download on the App Store